www.pogodaiklimat.ru

Погода и климат >> Архив погоды >> Россия >> Калмыкия >> Кетченеры


ПОГОДА в Кетченерах

  • Прогноз погоды в Кетченерах
  • Монитор погоды в Кетченерах
  • Климат города

АРХИВ ПОГОДЫ в Кетченерах

Время (UTC), дата Ветер
(напр.,м/с)
 
Видим.   Явления Облачность Т
(С)
Тd
(С)
f
(%)
Тe
(С)
Тes
(С)
Комфортность P
(гПа)
Po
(гПа)
Тmin
(С)
Tmax
(С)
R
(мм)
R24
(мм)
S
(см)
21 18.05 Ю 4 20 км ясно +22.1 +0.5 24 +22 +22 комфорт 1013.9 1007.2
03 19.05 Ю 1 20 км 9/5 600 м
[Cb calv Ac trans]
+20.3 +11.8 58 +23 +24 комфорт 1014.6 1007.8 +19.8
09 19.05 Ю 2 20 км {ливн. осадки} 3/3 1500 м
[Cu hum]
+28.6 +9.9 31 +29 +41 жарко 1014.3 1007.7
15 19.05 З 2 20 км 3/0
[Ac trans Ci fib]
+28.0 +8.7 30 +28 +29 жарко 1013.1 1006.5 +30.0
21 19.05 З 1 20 км ясно +15.4 +8.7 64 +16 +16 1014.6 1007.7
03 20.05 З 1 20 км 8/0
[Ac trans Ci fib]
+17.3 +11.2 67 +18 +19 1014.9 1008.1 +14.9
09 20.05 Ю 2 20 км 6/3 600 м
[Cb calv Ac trans Ci fib]
+27.9 +9.7 32 +28 +38 жарко 1015.1 1008.4
15 20.05 ЮВ 4 20 км 8/3 600 м
[Cb calv Ac trans Ci fib]
+27.1 +9.1 32 +27 +28 жарко 1013.4 1006.7 +28.9 0.0
21 20.05 штиль 0 20 км 4/4 600 м
[Cb calv]
+16.6 +10.2 66 +17 +17 1014.1 1007.2
03 21.05 З 1 20 км 8/4 600 м
[Cb calv Ac trans Ci fib]
+18.4 +11.3 63 +20 +21 1014.2 1007.4 +12.2
09 21.05 СВ 3 20 км 3/0
[Ac trans Ci fib]
+29.9 +5.2 21 +28 +41 жарко 1013.9 1007.3
15 21.05 СЗ 7-14
{16}
20 км пыльный позёмок 9/0
[Ac trans Ci fib]
+26.1 +11.6 40 +27 +28 жарко 1014.2 1007.5 +32.1
21 21.05 З 3 20 км 6/0
[Ac trans Ci fib]
+21.5 +14.2 63 +24 +24 комфорт 1015.6 1008.8
03 22.05 СЗ 1 20 км 9/6 600 м
[Sc Ac trans]
+20.5 +12.6 60 +24 +24 комфорт 1017.2 1010.4 +19.0
09 22.05 В 3 20 км 10/10 600 м
[Sc]
+27.1 +8.2 30 +27 +27 жарко 1019.3 1012.6
15 22.05 З 1 20 км 10/10 600 м
[Cb calv]
+26.8 +13.0 42 +28 +28 жарко 1019.0 1012.3 +29.8
21 22.05 В 1 20 км 8/0
[Ac trans]
+19.7 +6.0 41 +21 +21 комфорт 1019.9 1013.1
03 23.05 штиль 0 20 км 8/0
[Ac trans Ci fib]
+18.8 +9.2 54 +19 +21 1021.0 1014.1 +15.9
09 23.05 ЮВ 4
{13}
20 км пыльный позёмок 8/3 1500 м
[Cu hum Ci fib]
+35.2 +2.3 13 +32 +39 жарко 1018.4 1011.9
15 23.05 ЮВ 6-10
{14}
20 км пыльный позёмок 6/0
[Ac trans Ci fib]
+34.7 -1.6 10 +31 +31 жарко 1015.6 1009.1 +37.4
21 23.05 В 2 20 км 3/0
[Ci fib]
+20.0 +10.2 53 +22 +22 комфорт 1016.8 1010.0
03 24.05 штиль 0 20 км 4/0
[Ac trans Ci fib]
+17.0 +11.1 68 +17 +19 1014.6 1007.8 +12.7
09 24.05 ЮВ 8-14
{16}
20 км пыльный позёмок 1/0
[Ci fib]
+33.0 +3.6 16 +30 +34 жарко 1011.1 1004.6
15 24.05 З 2 20 км 1/0
[Ac trans Ci fib]
+33.5 +7.4 20 +32 +33 жарко 1008.5 1002.0 +34.8
21 24.05 С 1 20 км 3/0
[Ci fib]
+19.9 +12.2 61 +23 +23 комфорт 1009.7 1002.9
03 25.05 ЮЗ 1 20 км 8/0
[Ac trans Ci fib]
+21.4 +15.1 67 +25 +26 комфорт 1008.9 1002.2 +19.2
09 25.05 З 2 20 км 8/0
[Ac trans Ci fib]
+30.7 +12.5 33 +32 +42 жарко 1008.5 1001.9

 

Местоположение метеостанции Кетченеры (Калмыкия, Россия): широта 47.32 долгота 44.57 высота над уровнем моря 58 м.

В архиве по умолчанию представлена погода в Кетченерах за последнюю неделю. Архивные данные за месяц целиком и за предыдущие месяцы, начиная с января 2011 года, Вы можете получить, выбрав интересующий диапазон дат из раскрывающегося списка и нажав кнопку "Ввод!".


*Определитесь, кто Вы:
робот инопланетянин человек

Внимание! Время в таблицах - всемирное. Для получения местного времени необходимо прибавить поправку, которая в Кетченерах равна 3 ч.

Смотрите также архив погоды в соседних городах и на ближайших метеорологических станциях:

Погода в Малых Дербетах (Калмыкия, Россия) (69 км)
Погода в Элисте (Калмыкия, Россия) (107 км)
Погода в Ремонтном (Ростовская область, Россия) (108 км)
Погода в Котельниково (Волгоградская область, Россия) (112 км)
Погода в Юсте (Калмыкия, Россия) (134 км)
Погода в Яшкуле (Калмыкия, Россия) (140 км)
Погода в Черный Яр (Астраханская область, Россия) (143 км)
Погода в Волгограде город (Волгоградская область, Россия) (150 км)
Погода в Утте (Калмыкия, Россия) (153 км)
Погода в Нижнем Чире (Волгоградская область, Россия) (156 км)

Пояснения к столбцам:

Ветер - указаны скорость ветра в м/с - средняя за 10 мин, порывы в срок и между сроками (в фигурных скобках) и направление, откуда дует ветер: С - северный, СВ - северо-восточный, В - восточный, ЮВ - юго-восточный, Ю - южный, ЮЗ - юго-западный, З - западный, СЗ - северо-западный.
Видимость - горизонтальная дальность видимости в метрах или километрах. При видимости от 1 до 10 км при отсутствии осадков обычно наблюдается дымка, при ухудшении видимости до 1 км и менее - туман. В сухую погоду видимость может ухудшаться дымом, пылью или мглою.
Явления - указаны атмосферные явления, наблюдавшиеся в срок или в последний час перед сроком; фигурными скобками обозначены явления, наблюдавшиеся между сроками (за 1-3 часа до срока); квадратными скобками обозначены град или гололедные отложения с указанием их диаметра в мм.
Облачность - указаны через наклонную черту общая и нижняя облачность в баллах и высота нижней границы облаков в метрах; квадратными скобками обозначены формы облаков: Ci - перистые, Cs - перисто-слоистые, Cc - перисто-кучевые, Ac - высококучевые, As - высокослоистые, Sc - слоисто-кучевые, Ns - слоисто-дождевые, Cu - кучевые, Cb - кучево-дождевые. Подробнее классификацию облаков см. в Атласе облаков (PDF).
T - Температура воздуха - температура, измеренная на высоте 2 м над землей.
Td - Температура точки росы - температура, при понижении до которой содержащийся в воздухе водяной пар достигнет насыщения.
f - Относительная влажность воздуха - влажноcть воздуха, измеренная на высоте 2 м над землей.
Te - Эффективная температура - температура, которую ощущает одетый по сезону человек в тени. Характеристика душности погоды. При расчете учитывается влияние влажности воздуха и скорости ветра на теплоощущения человека.
Tes - Эффективная температура на солнце - температура, которую ощущает человек, с поправкой на солнечный нагрев. Характеристика знойности погоды. Зависит от высоты солнца над горизонтом, облачности и скорости ветра. Ночью, в пасмурную погоду, а также при ветре 12 м/с и более поправка равна нулю.
P - Атмосферное давление - приведенное к уровню моря атмосферное давление.
Po - Атмосферное давление - измеренное на уровне метеостанции атмосферное давление.
Tmin - Минимальная температура - минимум температуры воздуха на высоте 2 м над землей.
Tmax - Максимальная температура - максимум температуры воздуха на высоте 2 м над землей.
R - Количество осадков - Количество выпавших осадков за период времени, мм. При наведении курсора мыши на число - период времени, за который выпало указанное количество осадков.
R24 - Количество осадков - Количество выпавших осадков за 24 часа, мм.
S - Снежный покров - Высота снежного покрова, см. При наведении курсора мыши на число - состояние снежного покрова и степень покрытия местности в баллах.